Header for Extended Forecast Station List Page

Search by: ID | Name | Date | Parm | Value | Avg | % Avg
Sort by: ID | Name | Date | Parm | Value | Avg | % Avg

Enter search or view all records.

Click on id for station plot
#IDNameDateParmValueAvg% Avg
0LEOI1KOOTENAI-AT LEONIA04-12-2021DISCHARGE (KAF)3685523770
1FCFM8NF FLATHEAD-NEAR COLUMBIA FALLS04-12-2021DISCHARGE (KAF)1008157264
2WGCM8MF FLATHEAD-NEAR WEST GLACIER04-12-2021DISCHARGE (KAF)1300152985
3CFMM8FLATHEAD-AT COLUMBIA FALLS04-12-2021DISCHARGE (KAF)3337408082
4DLGM8CLARK FORK-AT DEER LODGE04-12-2021DISCHARGE (KAF)677590
5DRMM8CLARK FORK-NR DRUMMOND04-12-2021DISCHARGE (KAF)193MM
6RCCM8ROCK CREEK-NEAR CLINTON04-12-2021DISCHARGE (KAF)259252103
7BONM8BLACKFOOT-NEAR BONNER04-12-2021DISCHARGE (KAF)64377883
8ABOM8CLARK FORK-ABOVE MISSOULA04-12-2021DISCHARGE (KAF)1141137483
9BITM8BITTERROOT-NEAR MISSOULA04-12-2021DISCHARGE (KAF)1040117788
10BELM8CLARK FORK-BELOW MISSOULA04-12-2021DISCHARGE (KAF)2176259184
11STRM8ST. REGIS-NEAR ST. REGIS04-12-2021DISCHARGE (KAF)19223582
12SRGM8CLARK FORK-AT ST REGIS04-12-2021DISCHARGE (KAF)2742346179
13PRTI1PRIEST-NEAR PRIEST RIVER04-12-2021DISCHARGE (KAF)49873468
14SPOW1SPOKANE-AT SPOKANE04-12-2021DISCHARGE (KAF)1694MM
15SATI1ST MARIES-NEAR SANTA04-12-2021DISCHARGE (KAF)8011371
16CIBW1COLUMBIA-AT INTL BOUNDARY04-12-2021DISCHARGE (KAF)26985MM
17LAUW1KETTLE-AT LAURIER04-12-2021DISCHARGE (KAF)1316167978
18TONW1OKANOGAN-NEAR TONASKET04-12-2021DISCHARGE (KAF)16021411114
19PATW1METHOW-NEAR PATEROS04-12-2021DISCHARGE (KAF)921821112
20ARDW1ENTIAT-NEAR ARDENVOIR04-12-2021DISCHARGE (KAF)219193113
21PESW1WENATCHEE-AT PESHASTIN04-12-2021DISCHARGE (KAF)14841376108
22EASW1YAKIMA-AT EASTON04-12-2021DISCHARGE (KAF)10993117
23TNAW1TEANAWAY-BELOW FORKS04-12-2021DISCHARGE (KAF)137100138
24UMTW1YAKIMA-AT UMTANUM04-12-2021DISCHARGE (KAF)847791107
25CLFW1NACHES-NEAR CLIFFDEL04-12-2021DISCHARGE (KAF)404338120
26NACW1NACHES-NEAR NACHES04-12-2021DISCHARGE (KAF)563469120
27PARW1YAKIMA-NEAR PARKER04-12-2021DISCHARGE (KAF)525422124
28KIOW1YAKIMA-AT KIONA04-12-2021DISCHARGE (KAF)796780102
29CHEI1FALL RIVER-NEAR CHESTER04-12-2021DISCHARGE (KAF)24530879
30ANTI1HENRYS FORK-AT ST. ANTHONY04-12-2021DISCHARGE (KAF)54560989
31TEAI1TETON-NEAR ST. ANTHONY04-12-2021DISCHARGE (KAF)28233883
32REXI1HENRYS FORK-AT REXBURG04-12-2021DISCHARGE (KAF)55370179
33JKSW4SNAKE-NEAR JACKSON04-12-2021DISCHARGE (KAF)1149158173
34ALPW4SNAKE-NEAR ALPINE04-12-2021DISCHARGE (KAF)1395204368
35HEII1SNAKE-NEAR HEISE04-12-2021DISCHARGE (KAF)2848302294
36SIFI1SNAKE-AB EAGLE ROCK NR IDAHO FALLS04-12-2021DISCHARGE (KAF)2057245984
37SHYI1SNAKE-NEAR SHELLEY04-12-2021DISCHARGE (KAF)1808225880
38SNAI1SNAKE-AT BLACKFOOT04-12-2021DISCHARGE (KAF)1291177673
39BFTI1SNAKE-NEAR BLACKFOOT04-12-2021DISCHARGE (KAF)1242167274
40PIHI1PORTNEUF-AT POCATELLO04-12-2021DISCHARGE (KAF)316945
41MILI1SNAKE-AT MILNER04-12-2021DISCHARGE (KAF)M321M
42HOTI1BRUNEAU-NEAR HOT SPRINGS04-12-2021DISCHARGE (KAF)10416663
43SWAI1SNAKE-BELOW SWAN FALLS04-12-2021DISCHARGE (KAF)1502227866
44HWRI1BIG LOST-AT HOWELL RANCH NEAR CHILLY04-12-2021DISCHARGE (KAF)4215826
45HALI1BIG WOOD-AT HAILEY04-12-2021DISCHARGE (KAF)8522438
46BIGI1BOISE-AT GLENWOOD BRIDGE04-12-2021DISCHARGE (KAF)38144685
47PARI1BOISE-NEAR PARMA04-12-2021DISCHARGE (KAF)35040287
48EMMI1PAYETTE-NEAR EMMETT04-12-2021DISCHARGE (KAF)622114055
49WSRI1WEISER-NEAR WEISER04-12-2021DISCHARGE (KAF)22032069
50WEII1SNAKE-AT WEISER04-12-2021DISCHARGE (KAF)2879451564
51WHBI1SALMON-AT WHITEBIRD04-12-2021DISCHARGE (KAF)3280554759
52TRYO3GRANDE RONDE-TROY04-12-2021DISCHARGE (KAF)975110488
53ANAW1SNAKE-NEAR ANATONE04-12-2021DISCHARGE (KAF)72261240658
54ORFI1CLEARWATER-AT OROFINO04-12-2021DISCHARGE (KAF)3581427884
55SPDI1CLEARWATER-AT SPALDING04-12-2021DISCHARGE (KAF)4890641476
56TCHW1WALLA WALLA-NEAR TOUCHET04-12-2021DISCHARGE (KAF)888999
57GIBO3UMATILLA-NEAR GIBBON04-12-2021DISCHARGE (KAF)8157143
58PDTO3UMATILLA-AT PENDLETON04-12-2021DISCHARGE (KAF)157106148
59MYKO3MCKAY CREEK-NEAR PILOT ROCK04-12-2021DISCHARGE (KAF)111576
60UMAO3UMATILLA-NEAR UMATILLA04-12-2021DISCHARGE (KAF)12658218
61MONO3NF JOHN DAY-AT MONUMENT04-12-2021DISCHARGE (KAF)41047287
62SERO3JOHN DAY-AT SERVICE CK04-12-2021DISCHARGE (KAF)51566078
63MODO3DESCHUTES-AT MOODY NR BIGGS04-12-2021DISCHARGE (KAF)1170130590
64PITW1KLICKITAT-NEAR PITT04-12-2021DISCHARGE (KAF)39843891
65HODO3HOOD-NEAR TUCKER BRIDGE04-12-2021DISCHARGE (KAF)197197100
66UNDW1WHITE SALMON-NEAR UNDERWOOD04-12-2021DISCHARGE (KAF)25629686
67LYDM8KOOTENAI-LIBBY DAM04-12-2021INFLOW (KAF)4686572782
68HHWM8SF FLATHEAD-HUNGRY HORSE DAM04-12-2021INFLOW (KAF)1537186982
69KERM8FLATHEAD-SELI’Š KSANKA QLISPE’ DAM04-12-2021INFLOW (KAF)3739508274
70NOXM8CLARK FORK-NOXON RAPIDS DAM04-12-2021INFLOW (KAF)6069860471
71CABI1CLARK FORK-CABINET GORGE DAM04-12-2021INFLOW (KAF)6684911773
72ALFW1PEND OREILLE-ALBENI FALLS DAM04-12-2021INFLOW (KAF)76071058972
73COEI1COEUR D ALENE-COEUR D ALENE LAKE04-12-2021INFLOW (KAF)1756226478
74LLKW1SPOKANE-AT LONGLAKE04-12-2021INFLOW (KAF)1879277268
75GCDW1COLUMBIA-GRAND COULEE DAM04-12-2021INFLOW (KAF)302374158673
76CHJW1COLUMBIA-CHIEF JOSEPH DAM04-12-2021INFLOW (KAF)276683142288
77WELW1COLUMBIA-WELLS DAM04-12-2021INFLOW (KAF)301923403489
78CHDW1CHELAN-LAKE CHELAN DAM04-12-2021INFLOW (KAF)1067973110
79RRHW1COLUMBIA-ROCKY REACH DAM04-12-2021INFLOW (KAF)310533457390
80WANW1COLUMBIA-WANAPUM DAM04-12-2021INFLOW (KAF)325664138279
81PRWW1COLUMBIA-PRIEST RAPIDS DAM04-12-2021INFLOW (KAF)325624220277
82KEDW1YAKIMA-KEECHELUS LAKE04-12-2021INFLOW (KAF)127102124
83KADW1KACHESS-KACHESS DAM04-12-2021INFLOW (KAF)11295118
84CLUW1CLE ELUM-CLE ELUM LAKE04-12-2021INFLOW (KAF)457361127
85BUDW1BUMPING-BUMPING LAKE DAM04-12-2021INFLOW (KAF)117109108
86RILW1TIETON-RIMROCK LAKE NEAR RIMROCK04-12-2021INFLOW (KAF)208185113
87IPDI1HENRYS FORK-ISLAND PARK DAM04-12-2021INFLOW (KAF)15120773
88JLKW4SNAKE-JACKSON LAKE AT DAM04-12-2021INFLOW (KAF)51775369
89PLDI1SF SNAKE-PALISADES DAM04-12-2021INFLOW (KAF)1983293268
90RIDI1WILLOW CREEK-RIRIE DAM04-12-2021INFLOW (KAF)193948
91AFRI1SNAKE-AMERICAN FALLS RESERVOIR04-12-2021INFLOW (KAF)1742229676
92MACI1BIG LOST-MACKAY RESERVOIR NEAR MACKAY04-12-2021INFLOW (KAF)3815824
93MAGI1BIG WOOD-MAGIC DAM04-12-2021INFLOW (KAF)4121719
94LWRI1LITTLE WOOD-LITTLE WOOD DAM04-12-2021INFLOW (KAF)227131
95OWYO3OWYHEE-OWYHEE DAM04-12-2021INFLOW (KAF)7424231
96ARAI1SF BOISE-ANDERSON RANCH DAM04-12-2021INFLOW (KAF)24148050
97LUCI1BOISE-LUCKY PEAK DAM04-12-2021INFLOW (KAF)1032MM
98WRMO3MALHEUR-WARM SPRINGS DAM04-12-2021INFLOW (KAF)202773
99BERO3MALHEUR-AGENCY VALLEY DAM04-12-2021INFLOW (KAF)203461
100BULO3BULLY CREEK-BULLY CREEK DAM04-12-2021INFLOW (KAF)1254
101CSDI1NF PAYETTE-CASCADE DAM04-12-2021INFLOW (KAF)30345666
102DEDI1DEADWOOD-NEAR LOWMAN04-12-2021INFLOW (KAF)7912862
103BRNI1SNAKE-BROWNLEE DAM04-12-2021INFLOW (KAF)3208486866
104DWRI1NF CLEARWATER-DWORSHAK DAM04-12-2021INFLOW (KAF)1987245781
105LGDW1SNAKE-LOWER GRANITE DAM04-12-2021INFLOW (KAF)121161883264
106LGSW1SNAKE-LITTLE GOOSE DAM04-12-2021INFLOW (KAF)120611884564
107LMNW1SNAKE-LOWER MONUMENTAL DAM04-12-2021INFLOW (KAF)121751890964
108IHDW1SNAKE-ICE HARBOR DAM04-12-2021INFLOW (KAF)121781878965
109MCDW1COLUMBIA-MCNARY DAM04-12-2021INFLOW (KAF)456036289373
110JDAO3COLUMBIA-JOHN DAY DAM04-12-2021INFLOW (KAF)471896472673
111TDAO3COLUMBIA-THE DALLES DAM04-12-2021INFLOW (KAF)473565803582
112BONO3COLUMBIA-BONNEVILLE DAM04-12-2021INFLOW (KAF)482155984381
113HOPI1PEND OREILLE-PEND OREILLE LAKE NR HOPE04-12-2021LAKE ELEVATION (FT)MMM
114BFEI1KOOTENAI-AT BONNERS FERRY04-12-2021STAGE (FT)MMM
115SJMI1ST JOE-AT ST MARIES04-12-2021STAGE (FT)MMM